[[{"header":{"parameterUnit":"m.s-1","parameterCategory":1,"la1":30.2991,"la2":30.254,"lo1":-89.0895,"lo2":-89.0444,"dy":0.0017,"dx":0.0017,"nx":28,"ny":28,"refTime":"2024-11-24T03:00:00:Z","depth":0,"parameterNumber":2,"parameterNumberName":"U-component_of_WINDS"},"data":[0,0,0,0,0,0,0,0,0,0,0,0,0,0,0,0,0,0,0,0,0,0,0,0,0,0,0,0,0,0,0,0,0,0,0,0,0,0,0,0,0,0,0,0,0,0,0,0,0,0,0,0,0,0,0,0,0,0,-0.5809,-0.581,0,-0.5859,-0.586,-0.586,-0.5866,-0.5866,-0.5865,-0.5865,-0.5916,-0.5918,-0.5919,0,0,0,0,0,0,0,0,0,0,0,0,0,-0.5721,-0.5722,-0.5809,-0.581,-0.5811,-0.5859,-0.586,-0.586,-0.5866,-0.5866,-0.5865,-0.5865,-0.5915,-0.5917,-0.592,0,0,0,0,0,0,0,0,0,0,0,0,0,-0.5764,-0.5723,-0.5809,-0.5819,-0.5821,-0.5859,-0.586,-0.586,-0.5866,-0.5866,-0.5865,-0.5864,-0.5915,-0.5917,-0.592,-0.5951,0,0,-0.5928,-0.5929,0,0,0,0,0,0,0,0,-0.5761,-0.5767,-0.5817,-0.5819,-0.582,-0.5856,-0.5847,-0.5891,-0.5867,-0.5849,-0.5865,-0.5864,-0.5896,-0.5901,-0.5912,-0.5953,-0.5956,-0.5928,-0.593,-0.5931,-0.5932,0,0,0,0,0,0,0,-0.5758,-0.5765,-0.5829,-0.5818,-0.582,-0.5822,-0.5827,-0.5855,-0.5876,-0.5851,-0.5851,-0.5857,-0.5897,-0.5909,-0.5913,-0.5956,-0.5928,-0.5931,-0.5932,-0.5934,-0.6026,-0.6027,0,0,0,0,0,0,-0.5753,-0.5762,-0.5827,-0.583,-0.5788,-0.5824,-0.583,-0.5845,-0.5876,-0.588,-0.5858,-0.5857,-0.5905,-0.591,-0.5915,-0.5953,-0.5931,-0.5934,-0.5935,-0.6025,-0.6026,-0.6027,0,0,0,0,0,0,-0.5751,-0.5759,-0.5825,-0.5797,-0.5805,-0.5826,-0.5843,-0.5846,-0.5858,-0.5881,-0.5885,-0.5866,-0.5904,-0.5911,-0.5942,-0.5955,-0.5935,-0.5937,-0.6024,-0.6026,-0.6027,-0.6029,0,0,0,0,0,0,-0.5749,-0.5758,-0.577,-0.5797,-0.5807,-0.5852,-0.5844,-0.5848,-0.5863,-0.5863,-0.589,-0.5894,-0.5904,-0.5938,-0.5945,-0.5958,-0.594,-0.6023,-0.6025,-0.6026,-0.6028,-0.6031,-0.6033,0,0,0,0,0,-0.5746,-0.5769,-0.5771,-0.5779,-0.5822,-0.5852,-0.5858,-0.587,-0.5864,-0.5876,-0.5891,-0.5893,-0.5952,-0.5941,-0.5949,-0.5963,-0.6023,-0.6024,-0.6026,-0.6027,-0.603,-0.6032,0,0,0,0,0,0,-0.5744,-0.5773,-0.5775,-0.5808,-0.5828,-0.5853,-0.5869,-0.5872,-0.5895,-0.5893,-0.5907,-0.5913,-0.5944,-0.5957,-0.5943,-0.5995,-0.5987,-0.599,-0.5985,-0.5988,-0.599,-0.5986,-0.5942,0,0,0,0,0,-0.5747,-0.5769,-0.5794,-0.582,-0.583,-0.5848,-0.5862,-0.5869,-0.589,-0.5898,-0.5916,-0.5936,-0.5959,-0.5974,-0.5997,-0.603,-0.6036,-0.6044,-0.6046,-0.6048,-0.605,-0.6069,-0.6072,-0.6033,-0.6033,-0.6033,0,0,-0.5754,-0.5773,-0.5786,-0.582,-0.5836,-0.5859,-0.5855,-0.5879,-0.5896,-0.5902,-0.5932,-0.5946,-0.597,-0.6002,-0.6017,-0.6013,-0.6063,-0.605,-0.6051,-0.6053,-0.6071,-0.6075,-0.6078,-0.6035,-0.6034,-0.6034,0,0,-0.5779,-0.5795,-0.5819,-0.5835,-0.586,-0.5872,-0.5877,-0.5903,-0.5912,-0.5942,-0.5947,-0.5968,-0.6008,-0.6025,-0.6038,-0.6069,-0.6072,-0.6076,-0.6087,-0.6105,-0.6108,-0.6111,-0.6121,-0.6125,-0.6079,-0.6079,-0.6079,0,-0.5785,-0.5819,-0.5831,-0.5855,-0.587,-0.5876,-0.59,-0.5916,-0.5947,-0.5957,-0.5953,-0.6003,-0.6019,-0.6055,-0.6063,-0.6074,-0.6081,-0.6073,-0.6106,-0.6109,-0.6112,-0.6122,-0.6126,-0.608,-0.6079,-0.6079,-0.6079,0,-0.5825,-0.5848,-0.5865,-0.5894,-0.5911,-0.5935,-0.595,-0.5966,-0.5972,-0.5984,-0.6015,-0.6035,-0.6062,-0.6071,-0.6077,-0.6108,-0.6105,-0.6104,-0.6096,-0.6116,-0.6126,-0.613,-0.608,-0.608,-0.608,-0.608,0,0,-0.5849,-0.5884,-0.589,-0.5903,-0.5931,-0.595,-0.5974,-0.6,-0.6013,-0.6034,-0.6055,-0.6088,-0.6087,-0.6103,-0.6111,-0.6126,-0.6149,-0.6123,-0.6124,-0.6126,-0.6183,-0.6184,-0.6188,-0.6151,-0.6152,-0.6152,-0.6181,0,-0.5876,-0.5919,-0.5931,-0.5967,-0.5989,-0.5996,-0.6017,-0.6036,-0.6049,-0.6069,-0.6083,-0.6106,-0.6103,-0.6112,-0.6128,-0.6143,-0.616,-0.6141,-0.617,-0.6171,-0.6163,-0.6193,-0.6194,-0.622,-0.6185,-0.6186,-0.6186,0,-0.5913,-0.5935,-0.5973,-0.5998,-0.6008,-0.6026,-0.6051,-0.6071,-0.6093,-0.6101,-0.6118,-0.6125,-0.615,-0.6142,-0.6177,-0.6164,-0.6176,-0.6185,-0.6187,-0.6189,-0.6179,-0.6196,-0.6228,-0.6232,-0.6192,-0.6192,-0.6191,0,-0.5926,-0.5965,-0.5993,-0.6004,-0.6034,-0.6047,-0.606,-0.6081,-0.6096,-0.6118,-0.6127,-0.6152,-0.6165,-0.6184,-0.6197,-0.619,-0.6232,-0.6224,-0.6238,-0.6238,-0.6246,-0.6245,-0.628,-0.6256,-0.6255,-0.6255,-0.6255,0,-0.5955,-0.5978,-0.5999,-0.6016,-0.6042,-0.6056,-0.6082,-0.6095,-0.6114,-0.6134,-0.6141,-0.616,-0.6177,-0.6197,-0.6208,-0.6235,-0.6242,-0.6248,-0.6251,-0.6247,-0.6246,-0.6255,-0.6253,-0.6256,-0.6256,-0.6256,-0.6256,0,-0.5973,-0.5988,-0.6019,-0.6045,-0.6052,-0.607,-0.6092,-0.6109,-0.6121,-0.6146,-0.6153,-0.6173,-0.6198,-0.6213,-0.6245,-0.6252,-0.6282,-0.6284,-0.6274,-0.6275,-0.6288,-0.6286,-0.6329,-0.6335,-0.6307,-0.6307,-0.6308,0,-0.599,-0.6008,-0.6035,-0.6049,-0.6062,-0.6084,-0.61,-0.6114,-0.6129,-0.6156,-0.6169,-0.6195,-0.6216,-0.6255,-0.6272,-0.6296,-0.6299,-0.6312,-0.6302,-0.6298,-0.6298,-0.6297,-0.6298,-0.6313,-0.6314,-0.6314,-0.6314,0,-0.6018,-0.6025,-0.6046,-0.607,-0.6088,-0.6108,-0.6127,-0.6138,-0.6156,-0.6173,-0.6198,-0.6214,-0.6247,-0.6272,-0.6297,-0.6311,-0.6315,-0.6317,-0.6322,-0.6318,-0.6311,-0.6314,-0.6278,-0.6316,-0.6316,-0.6316,-0.6315,-0.6315,-0.6036,-0.6052,-0.6074,-0.6097,-0.6114,-0.6132,-0.6149,-0.6163,-0.6185,-0.6212,-0.6219,-0.6246,-0.6267,-0.6302,-0.6316,-0.6337,-0.6335,-0.6342,-0.6343,-0.6345,-0.6345,-0.6308,-0.6342,-0.6342,-0.6342,-0.6342,-0.6342,0,-0.6064,-0.6078,-0.61,-0.6127,-0.6145,-0.6148,-0.617,-0.6185,-0.6208,-0.6228,-0.6249,-0.6278,-0.6302,-0.6321,-0.6346,-0.6359,-0.6362,-0.6365,-0.6364,-0.6367,-0.6345,-0.6339,-0.6363,-0.6363,-0.6363,-0.6363,-0.6363,-0.6363,-0.6081,-0.6108,-0.6117,-0.6152,-0.6167,-0.6192,-0.6205,-0.6221,-0.6237,-0.6269,-0.6289,-0.6302,-0.6321,-0.6348,-0.637,-0.6375,-0.6384,-0.6386,-0.6392,-0.6371,-0.6369,-0.6366,-0.636,-0.6388,-0.6388,-0.6412,-0.6412,-0.6412]},{"header":{"parameterUnit":"m.s-1","parameterCategory":1,"la1":30.2991,"la2":30.254,"lo1":-89.0895,"lo2":-89.0444,"dy":0.0017,"dx":0.0017,"nx":28,"ny":28,"refTime":"2024-11-24T03:00:00:Z","depth":0,"parameterNumber":3,"parameterNumberName":"V-component_of_WINDS"},"data":[0,0,0,0,0,0,0,0,0,0,0,0,0,0,0,0,0,0,0,0,0,0,0,0,0,0,0,0,0,0,0,0,0,0,0,0,0,0,0,0,0,0,0,0,0,0,0,0,0,0,0,0,0,0,0,0,0,0,0.1345,0.1345,0,0.1328,0.1328,0.1327,0.125,0.1248,0.1246,0.1245,0.1231,0.1232,0.1233,0,0,0,0,0,0,0,0,0,0,0,0,0,0.1315,0.1316,0.1345,0.1345,0.1345,0.1328,0.1328,0.1327,0.125,0.1248,0.1246,0.1244,0.123,0.1232,0.1234,0,0,0,0,0,0,0,0,0,0,0,0,0,0.1316,0.1317,0.1345,0.1304,0.13,0.1328,0.1328,0.1327,0.1251,0.1248,0.1245,0.1243,0.123,0.1232,0.1234,0.1301,0,0,0.124,0.1241,0,0,0,0,0,0,0,0,0.1317,0.1318,0.131,0.1307,0.1303,0.1288,0.1312,0.1319,0.1251,0.127,0.1245,0.1241,0.1252,0.1252,0.1255,0.13,0.13,0.124,0.1241,0.1242,0.1243,0,0,0,0,0,0,0,0.1317,0.1318,0.1338,0.131,0.1306,0.1288,0.1285,0.1313,0.1277,0.1268,0.1262,0.1261,0.125,0.1254,0.1254,0.1299,0.124,0.1242,0.1243,0.1244,0.14,0.1403,0,0,0,0,0,0,0.1322,0.1318,0.1339,0.1338,0.1303,0.1291,0.1287,0.1296,0.1276,0.127,0.1263,0.1257,0.1251,0.1252,0.1254,0.1332,0.1242,0.1244,0.1245,0.1397,0.14,0.1404,0,0,0,0,0,0,0.1321,0.1324,0.134,0.1327,0.1327,0.1294,0.1304,0.1297,0.13,0.1273,0.1266,0.1274,0.1249,0.1251,0.129,0.133,0.1245,0.1247,0.1393,0.1398,0.1402,0.1489,0,0,0,0,0,0,0.1321,0.1325,0.1349,0.1328,0.1328,0.1375,0.1306,0.1298,0.1303,0.1296,0.1281,0.1275,0.1247,0.1287,0.1292,0.1332,0.1248,0.139,0.1395,0.1401,0.1482,0.1496,0.1507,0,0,0,0,0,0.132,0.1375,0.1351,0.1353,0.1358,0.1378,0.1378,0.1343,0.1307,0.1332,0.1314,0.1276,0.1325,0.1292,0.1296,0.1338,0.1387,0.1394,0.14,0.1477,0.1493,0.1507,0,0,0,0,0,0,0.1403,0.1371,0.1344,0.1393,0.1389,0.1364,0.1395,0.1362,0.1368,0.1361,0.1319,0.1316,0.1362,0.1353,0.1317,0.1402,0.1349,0.1357,0.1406,0.1421,0.1434,0.1436,0.125,0,0,0,0,0,0.1427,0.1445,0.1416,0.1462,0.1461,0.1429,0.1436,0.1409,0.1404,0.1402,0.1387,0.1384,0.1398,0.1409,0.1421,0.148,0.1477,0.151,0.1523,0.1533,0.1541,0.1574,0.1589,0.1425,0.1425,0.1425,0,0,0.1477,0.1462,0.1476,0.1479,0.1472,0.1493,0.1428,0.1452,0.1468,0.1406,0.1442,0.1431,0.1424,0.1474,0.1495,0.1469,0.1585,0.1542,0.155,0.1553,0.1582,0.1598,0.1611,0.143,0.1429,0.1428,0,0,0.1579,0.1568,0.1606,0.16,0.159,0.1568,0.1578,0.1558,0.1548,0.1583,0.1538,0.1556,0.1581,0.1579,0.1582,0.1682,0.1648,0.1687,0.1754,0.1785,0.1798,0.181,0.1847,0.1861,0.1695,0.1695,0.1695,0,0.1643,0.1671,0.163,0.1658,0.1661,0.1604,0.1643,0.164,0.1636,0.164,0.1609,0.1641,0.1632,0.1681,0.1706,0.1709,0.172,0.169,0.1799,0.181,0.182,0.1856,0.187,0.17,0.17,0.1699,0.1699,0,0.1751,0.1771,0.1803,0.1799,0.1805,0.1839,0.1804,0.1816,0.1789,0.177,0.1808,0.1795,0.1804,0.1813,0.1787,0.1859,0.1843,0.1807,0.1754,0.1842,0.1875,0.1888,0.1707,0.1705,0.1704,0.1703,0,0,0.1907,0.1878,0.1891,0.1889,0.1873,0.1889,0.192,0.1927,0.1939,0.1938,0.1964,0.1987,0.1953,0.1956,0.1929,0.1956,0.2039,0.1916,0.1916,0.1942,0.212,0.2149,0.2165,0.2015,0.2018,0.202,0.2121,0,0.2006,0.2056,0.202,0.2077,0.2096,0.2042,0.2069,0.2064,0.2047,0.2062,0.2044,0.2062,0.2015,0.2016,0.2041,0.2024,0.2075,0.2016,0.2042,0.2043,0.2047,0.2182,0.2213,0.231,0.2133,0.2136,0.2137,0,0.2128,0.2131,0.219,0.2171,0.2178,0.2203,0.2207,0.2221,0.2214,0.22,0.2203,0.2169,0.2199,0.2145,0.2188,0.2149,0.2157,0.215,0.2153,0.2156,0.2097,0.2191,0.2339,0.2355,0.2157,0.2155,0.2154,0,0.2238,0.2257,0.2294,0.2294,0.2272,0.2291,0.2284,0.2273,0.228,0.2284,0.2289,0.2297,0.2302,0.2309,0.2279,0.2242,0.2326,0.2269,0.2318,0.2319,0.234,0.2339,0.2494,0.2342,0.2341,0.2341,0.2341,0,0.2354,0.2393,0.2344,0.2367,0.2409,0.2368,0.2411,0.2398,0.2389,0.2411,0.2364,0.2385,0.2343,0.236,0.2336,0.2376,0.2378,0.237,0.2363,0.2375,0.2377,0.2382,0.2375,0.2345,0.2344,0.2343,0.2343,0,0.2485,0.2453,0.2492,0.2467,0.2462,0.2495,0.2475,0.2497,0.2476,0.2504,0.2508,0.2477,0.2495,0.2464,0.2479,0.2463,0.2519,0.2502,0.2522,0.2517,0.2568,0.2565,0.2733,0.2754,0.2587,0.2588,0.2589,0,0.2562,0.259,0.2569,0.2579,0.2574,0.2591,0.2597,0.2557,0.2566,0.256,0.2583,0.2597,0.2606,0.2637,0.2617,0.2628,0.2612,0.267,0.2614,0.2625,0.2615,0.2615,0.2619,0.2683,0.2685,0.2686,0.2688,0,0.2703,0.2686,0.2696,0.2701,0.271,0.2713,0.2712,0.2723,0.2681,0.2694,0.2711,0.2718,0.2732,0.2747,0.2753,0.2746,0.2712,0.2705,0.2717,0.2731,0.2742,0.2739,0.2556,0.2702,0.2701,0.27,0.2699,0.2698,0.2811,0.2834,0.2822,0.2836,0.2831,0.2831,0.285,0.2832,0.2845,0.2853,0.2828,0.2852,0.2845,0.2849,0.2846,0.2865,0.2839,0.2856,0.2861,0.2866,0.2875,0.2737,0.2865,0.2865,0.2864,0.2864,0.2864,0,0.2951,0.294,0.2953,0.2953,0.2964,0.2927,0.2924,0.2937,0.2957,0.2952,0.2962,0.2982,0.2996,0.2977,0.2988,0.3007,0.2991,0.3011,0.3011,0.301,0.2896,0.2886,0.3024,0.3024,0.3024,0.3024,0.3024,0.3024,0.3025,0.3062,0.3044,0.3079,0.3069,0.309,0.3092,0.3093,0.3089,0.3113,0.3124,0.3111,0.3101,0.311,0.3123,0.3116,0.3124,0.315,0.3139,0.3034,0.3018,0.3003,0.2993,0.3152,0.3152,0.3252,0.3253,0.3253]}]]